Regional Weather Roundup
Issued by NWS

Home | Current Version | Previous Version | Graphics & Text | Print | Product List | Glossary On
Versions: 1 2 3 4 5 6 7 8 9 10 11 12 13 14 15 16 17 18 19 20 21 22 23 24 25 26 27 28 29 30 31 32 33 34 35 36 37 38 39 40 41 42 43 44 45 46 47 48 49 50
000
ASUS45 KTFX 260304
RWRMT
MONTANA HOURLY WEATHER ROUNDUP
NATIONAL WEATHER SERVICE GREAT FALLS MT
904 PM MDT FRI JUL 25 2014

NOTE: "FAIR" INDICATES FEW OR NO CLOUDS BELOW 12000 FEET WITH NO
SIGNIFICANT WEATHER AND/OR OBSTRUCTIONS TO VISIBILITY.

* THESE STATIONS ARE NOT UNDER NWS QUALITY CONTROL. THEY DO NOT
   REPORT WEATHER SUCH AS PRECIPITATION OR FOG.

MTZ001>007-043-260400-
WEST OF THE DIVIDE
CITY           SKY/WX    TMP DP  RH WIND       PRES   REMARKS
KALISPELL      CLEAR     66  41  40 W6        30.03R
MISSOULA       CLEAR     70  39  32 W9        30.05R
BUTTE          CLEAR     68  25  20 NW16G26   30.11R
MULLAN PASS    CLEAR     54  41  62 VRB6      30.20R
* ESSEX        N/A       61  43  52 N1         N/A
* LINCOLN      N/A       70  40  34 W5G15      N/A
* LOOKOUT PASS N/A       58  44  60 SE1        N/A
* POLSON       N/A       64  39  40 NW1G6      N/A
* RONAN APT    CLEAR     70  45  41 N/A        N/A
* SEELEY LAKE  N/A       70  35  28 NW5G15     N/A
* THOMP F APT  CLEAR     70  28  21 SE7G16     N/A
$$

MTZ008-052>055-260400-
SOUTHWEST MONTANA
CITY           SKY/WX    TMP DP  RH WIND       PRES   REMARKS
BOZEMAN        CLEAR     64  39  40 N5        30.03R
DILLON         CLEAR     66  36  33 NE7       30.05R
W YELLOWSTONE  CLEAR     64  30  28 SW9       30.15R
* THREE FORKS  CLEAR     75  39  27 N/A        N/A
* BOULDER HILL N/A       63  29  28 NW1        N/A
* MONIDA PASS  N/A       68  27  21 SE8        N/A
* RAYNOLDS PAS N/A       65  42  43 SE12       N/A
* WHITEHALL    N/A       77  26  15 NW9G21     N/A
* WISE RIVER   N/A       69  27  21 NW11G18    N/A
$$

MTZ009>010-012-014-046-048-049-054-260400-
EAST SLOPES AND CENTRAL MONTANA
CITY           SKY/WX    TMP DP  RH WIND       PRES   REMARKS
CUT BANK       CLEAR     64  37  37 W13       29.99R
GREAT FALLS    CLEAR     68  36  31 NW10      29.98R
HELENA         CLEAR     73  34  24 NW9       30.04R
MALMSTROM AFB  CLEAR     72  34  25 W17G24    29.98R
* CONRAD       PTCLDY    70  41  35 W8         N/A
* DEARBORN     N/A       74  36  25 S20G29     N/A
* EAST GLACIER N/A       60  36  41 NW13G18    N/A
* MONARCH      N/A       65  26  23 W11G19     N/A
* SAINT MARY   N/A       65  39  39 S7G16      N/A
* SWEET GRASS  N/A       59  49  70 NE9        N/A
$$

MTZ011-013-016-021-035-040-045-047-050-051-260400-
NORTH CENTRAL MONTANA
CITY           SKY/WX    TMP DP  RH WIND       PRES   REMARKS
HAVRE          MOCLDY    63  46  54 NW18G25   29.92R
LEWISTOWN      CLEAR     72  34  25 NW20G30   29.97R
* CHESTER      N/A       66  46  49 NE6G12     N/A
* DENTON       N/A       71  31  23 NW11G24    N/A
* JUDITH GAP   N/A       70  28  21 W9G18      N/A
* LOMA         N/A       75  35  23 W24G37     N/A
$$

MTZ017>020-022>027-061-062-260400-
NORTHEAST MONTANA
CITY           SKY/WX    TMP DP  RH WIND       PRES   REMARKS
GLASGOW        CLEAR     66  46  49 NW14      29.82R
GLENDIVE       CLEAR     72  37  28 NW7       29.83R
JORDAN         CLEAR     75  28  18 NW12      29.83R
SIDNEY         CLEAR     66  39  37 W6        29.78R
WOLF POINT     CLEAR     70  48  46 N16       29.80R
* BEAVER HILL  N/A       71  40  33 NW9        N/A
* CIRCLE       N/A       77  38  25 NW4        N/A
* LINDSAY DVD  N/A       66  38  36 NW6        N/A
* NAVAJO       N/A       58  49  72 NW12       N/A
$$

MTZ028>042-056>058-260400-
SOUTHCENTRAL AND SOUTHEAST MONTANA
CITY           SKY/WX    TMP DP  RH WIND       PRES   REMARKS
BAKER          CLEAR     73  37  27 SW6       29.85R
BILLINGS       CLEAR     79  30  17 N10       29.93R
LIVINGSTON     CLEAR     72  32  23 NW14      30.01R
MILES CITY     CLEAR     77  27  16 NW9       29.84R
* LAUREL APT   CLEAR     79  32  18 NW8        N/A
* ROUNDUP APT  CLEAR     77  28  16 NW18G23    N/A
* ALZADA       N/A       72  50  46 E6         N/A
* HYSHAM       N/A       79  27  15 W11G16     N/A
* LAME DEER    N/A       73  27  18 NW6G11     N/A
* REED POINT   N/A       79  34  20 W8G16      N/A
* ROSCOE HILL  N/A       71  28  20 N9         N/A
$$

REGIONAL REPORTS...DAKOTAS
CITY           SKY/WX    TMP DP  RH WIND       PRES   REMARKS
WILLISTON      CLEAR     68  46  45 W9        29.75R
DICKINSON      CLEAR     63  55  75 S9        29.79R
CROSBY         N/A       61  59  93 NW20      29.76R
TIOGA          CLEAR     59  59 100 S5        29.79S
WATFORD CITY   HAZE      59  55  87 CALM      29.76R VSB 2
BISMARCK       CLEAR     64  54  70 SE7       29.80R
GRAND FORKS    CLEAR     64  59  84 W6        29.77R
FARGO          CLEAR     70  57  64 W5        29.79R
BUFFALO SD     CLEAR     72  52  49 SE13      29.80R
RAPID CITY     PTCLDY    70  55  59 E8        29.89R
$$

REGIONAL REPORTS...WYOMING/IDAHO/WASHINGTON
CITY           SKY/WX    TMP DP  RH WIND       PRES   REMARKS
GILLETTE       PTCLDY    73  46  38 NE8       29.92R
SHERIDAN       PTCLDY    70  41  35 W9        29.94R
YELLOWSTONE LA CLEAR     54  32  43 CALM      30.28R
SALMON         CLEAR     72  36  27 NE7       29.99R
MULLAN PASS    CLEAR     54  41  62 VRB6      30.20S
SAND POINT     CLEAR     63  50  63 CALM      30.04S
SPOKANE        FAIR      73  36  26 W6        30.04S
$$

REGIONAL REPORTS...ALBERTA
CITY           SKY/WX    TMP DP  RH WIND       PRES   REMARKS
EDMONTON       LGT RAIN  55  52  90 NW16      29.88R

$$




USA.gov is the U.S. government's official web portal to all federal, state and local government web resources and services.